Flag Weather past 2 weeks in Suzhou, Jiangsu, China

Now
68 °F

Sunny.


Feels Like: 68 °F
Forecast: 56 / 64 °F
Wind: 17 mph from Southeast

Location: Shanghai Hongqiao Airport

Current Time: Nov 27, 2014 at 3:11:12 PM

Latest Report: Nov 27, 2014 at 2:30 PM


Visibility: 10 mi

Pressure: 30.01 "Hg

Humidity: 60%

Dew point: 54 °F

Location of SuzhouLocation

Historic Weather in Suzhou — Graph

°F

Suzhou temperature yesterday

Maximum temperature yesterday: 63 °F (at 12:00 PM)
Minimum temperature yesterday: 50 °F (at 6:00 AM)
Average temperature yesterday: 57 °F

Past Weeks' High & Low Weather Summary

 TemperatureHumidityPressure
High73 °F (Nov 22, 1:30 PM)100% (Nov 22, 3:00 AM)30.45 "Hg (Nov 22, 3:00 AM)
Low45 °F (Nov 14, 3:30 AM)22% (Nov 14, 1:00 PM)29.92 "Hg (Nov 24, 12:30 PM)
Average58 °F70%30.21 "Hg
* Reported Nov 12 2:00 PM — Nov 27 2:00 PM, Suzhou, Weather by CustomWeather, © 2014

Note: Actual official high and low records may vary slightly from our data, if they occured in-between our weather recording intervals... More about our weather records

Advertising

Suzhou weather history for previous 24 hours

 ConditionsComfort  
Time TempWeatherWind HumidityBarometerVisibility
2:00 PM
Nov 27
68 °FSunny.17 mph56%30.01 "Hg10 mi
1:30 PM68 °FSunny.20 mph56%30.01 "Hg10 mi
1:00 PM68 °FSunny.20 mph53%30.04 "Hg10 mi
12:30 PM68 °FPassing clouds.20 mph53%30.04 "HgN/A
12:00 PM68 °FSunny.15 mph53%30.07 "Hg10 mi
11:30 AM66 °FSunny.13 mph60%30.07 "Hg10 mi
10:30 AM63 °FPassing clouds.10 mph64%30.12 "HgN/A
10:00 AM61 °FSunny.8 mph68%30.12 "Hg10 mi
9:30 AM61 °FSunny.8 mph68%30.12 "Hg10 mi
9:00 AM59 °FSunny.8 mph72%30.12 "Hg10 mi
8:30 AM59 °FSunny.6 mph72%30.15 "Hg10 mi
8:00 AM57 °FSunny.6 mph77%30.15 "Hg10 mi
7:30 AM55 °FSunny.3 mph82%30.15 "Hg10 mi
7:00 AM55 °FSunny.3 mph82%30.15 "Hg10 mi
6:30 AM50 °FClear.3 mph88%30.15 "Hg10 mi
6:00 AM50 °FClear.No wind88%30.12 "Hg10 mi
5:30 AM50 °FClear.1 mph88%30.12 "Hg10 mi
5:00 AM50 °FClear.1 mph88%30.12 "Hg10 mi
4:30 AM48 °FClear.1 mph87%30.12 "Hg10 mi
4:00 AM52 °FClear.1 mph82%30.12 "Hg10 mi
3:30 AM54 °FClear.6 mph77%30.12 "Hg10 mi
3:00 AM54 °FClear.3 mph77%30.12 "Hg10 mi
2:30 AM52 °FClear.3 mph77%30.15 "Hg10 mi
2:00 AM52 °FClear.3 mph77%30.15 "Hg10 mi
1:30 AM54 °FClear.1 mph72%30.15 "Hg10 mi
1:00 AM55 °FClear.1 mph67%30.15 "Hg10 mi
12:30 AM55 °FPassing clouds.3 mph67%30.15 "HgN/A
12:00 AM55 °FPassing clouds.3 mph67%30.15 "HgN/A
11:30 PM
Nov 26
55 °FPassing clouds.3 mph67%30.15 "HgN/A
10:30 PM55 °FPassing clouds.6 mph67%30.15 "HgN/A
10:00 PM55 °FPassing clouds.6 mph72%30.15 "HgN/A
9:30 PM55 °FClear.6 mph72%30.15 "Hg10 mi
9:00 PM55 °FPassing clouds.6 mph72%30.15 "HgN/A
8:30 PM55 °FClear.8 mph72%30.15 "Hg10 mi
8:00 PM57 °FPassing clouds.8 mph67%30.12 "HgN/A
7:30 PM57 °FPassing clouds.8 mph67%30.12 "HgN/A
7:00 PM57 °FPassing clouds.8 mph67%30.12 "HgN/A
6:30 PM59 °FPassing clouds.8 mph55%30.12 "HgN/A
6:00 PM59 °FPassing clouds.3 mph55%30.09 "HgN/A
5:30 PM59 °FClear.6 mph55%30.09 "Hg10 mi
5:00 PM59 °FClear.8 mph59%30.09 "Hg10 mi
4:30 PM61 °FSunny.6 mph55%30.07 "Hg10 mi
4:00 PM61 °FSunny.3 mph52%30.09 "Hg10 mi
3:30 PM63 °FSunny.1 mph49%30.07 "Hg10 mi
3:00 PM63 °FSunny.1 mph49%30.07 "Hg10 mi
Weather by CustomWeather, © 2014

See weather overviewHow to use our weather pages